Time,TemperatureF,DewpointF,PressureIn,WindDirection,WindDirectionDegrees,WindSpeedMPH,WindSpeedGustMPH,Humidity,HourlyPrecipIn,Conditions,Clouds,dailyrainin,SoftwareType,DateUTC
2013-04-05 00:00:00,71.7,65.2,30.08,East,92,0.0,7.0,80,0.00,,---,0.00,VWS V14.00,2013-04-05 10:00:00,
2013-04-05 00:05:00,71.7,65.2,30.08,East,95,0.0,4.0,80,0.00,,---,0.00,VWS V14.00,2013-04-05 10:05:00,
2013-04-05 00:10:00,71.8,65.3,30.08,East,97,0.0,5.0,80,0.00,,---,0.00,VWS V14.00,2013-04-05 10:10:00,
2013-04-05 00:15:00,71.8,65.3,30.08,East,97,2.0,6.0,80,0.00,,---,0.00,VWS V14.00,2013-04-05 10:15:00,
2013-04-05 00:20:00,71.7,65.6,30.07,East,96,1.0,6.0,81,0.00,,---,0.00,VWS V14.00,2013-04-05 10:20:00,
2013-04-05 00:25:00,71.7,65.2,30.07,East,96,0.0,6.0,80,0.00,,---,0.00,VWS V14.00,2013-04-05 10:25:00,
2013-04-05 00:31:00,71.7,65.6,30.07,East,96,0.0,6.0,81,0.00,,---,0.00,VWS V14.00,2013-04-05 10:31:00,
2013-04-05 00:35:00,71.7,65.6,30.07,East,99,7.0,7.0,81,0.00,,---,0.00,VWS V14.00,2013-04-05 10:35:00,
2013-04-05 00:40:00,71.7,65.6,30.07,ESE,102,2.0,8.0,81,0.00,,---,0.00,VWS V14.00,2013-04-05 10:40:00,
2013-04-05 00:45:00,71.8,65.7,30.06,ENE,63,0.0,8.0,81,0.00,,---,0.00,VWS V14.00,2013-04-05 10:45:00,
2013-04-05 00:50:00,71.8,65.7,30.06,ENE,63,0.0,8.0,81,0.00,,---,0.00,VWS V14.00,2013-04-05 10:50:00,
2013-04-05 00:55:00,71.8,65.7,30.06,ENE,63,0.0,8.0,81,0.00,,---,0.00,VWS V14.00,2013-04-05 10:55:00,
2013-04-05 01:00:00,71.8,65.7,30.06,SSE,153,0.0,8.0,81,0.00,,---,0.00,VWS V14.00,2013-04-05 11:00:00,
2013-04-05 01:05:00,71.8,65.7,30.06,SSE,148,0.0,6.0,81,0.00,,---,0.00,VWS V14.00,2013-04-05 11:05:00,
2013-04-05 01:10:00,71.8,65.3,30.06,SSE,148,0.0,6.0,80,0.00,,---,0.00,VWS V14.00,2013-04-05 11:10:00,
2013-04-05 01:15:00,71.9,65.8,30.06,SE,146,0.0,6.0,81,0.00,,---,0.00,VWS V14.00,2013-04-05 11:15:00,
2013-04-05 01:20:00,71.9,65.8,30.06,SE,146,0.0,6.0,81,0.00,,---,0.00,VWS V14.00,2013-04-05 11:20:00,
2013-04-05 01:25:00,71.8,65.7,30.06,SE,146,0.0,6.0,81,0.00,,---,0.00,VWS V14.00,2013-04-05 11:25:00,
2013-04-05 01:30:00,71.7,65.6,30.06,SE,146,4.0,6.0,81,0.00,,---,0.00,VWS V14.00,2013-04-05 11:30:00,
2013-04-05 01:35:00,71.7,65.6,30.06,ESE,120,2.0,4.0,81,0.00,,---,0.00,VWS V14.00,2013-04-05 11:35:00,
2013-04-05 01:40:00,71.7,65.6,30.06,East,96,1.0,7.0,81,0.00,,---,0.00,VWS V14.00,2013-04-05 11:40:00,
2013-04-05 01:45:00,71.7,65.6,30.05,ENE,57,3.0,8.0,81,0.00,,---,0.00,VWS V14.00,2013-04-05 11:45:00,
2013-04-05 01:50:00,71.7,65.6,30.05,ENE,57,1.0,8.0,81,0.00,,---,0.00,VWS V14.00,2013-04-05 11:50:00,
2013-04-05 01:55:00,71.7,65.6,30.05,ENE,58,0.0,8.0,81,0.00,,---,0.00,VWS V14.00,2013-04-05 11:55:00,
2013-04-05 02:00:00,71.7,65.2,30.05,NE,54,0.0,8.0,80,0.00,,---,0.00,VWS V14.00,2013-04-05 12:00:00,
2013-04-05 02:05:00,71.8,65.3,30.05,NNE,33,0.0,10.0,80,0.00,,---,0.00,VWS V14.00,2013-04-05 12:05:00,
2013-04-05 02:10:00,71.8,65.3,30.05,NE,34,2.0,10.0,80,0.00,,---,0.00,VWS V14.00,2013-04-05 12:10:00,
2013-04-05 02:15:00,71.7,65.2,30.05,NE,35,2.0,10.0,80,0.00,,---,0.00,VWS V14.00,2013-04-05 12:15:00,
2013-04-05 02:20:00,71.7,65.2,30.05,NNE,32,0.0,10.0,80,0.00,,---,0.00,VWS V14.00,2013-04-05 12:20:00,
2013-04-05 02:25:00,71.6,65.1,30.05,NNE,32,0.0,10.0,80,0.00,,---,0.00,VWS V14.00,2013-04-05 12:25:00,
2013-04-05 02:30:00,71.5,65.0,30.04,NNE,32,0.0,10.0,80,0.00,,---,0.00,VWS V14.00,2013-04-05 12:30:00,
2013-04-05 02:35:00,71.4,65.3,30.04,NNE,32,0.0,2.0,81,0.00,,---,0.00,VWS V14.00,2013-04-05 12:35:00,
2013-04-05 02:40:00,71.3,65.2,30.04,NNE,32,0.0,3.0,81,0.00,,---,0.00,VWS V14.00,2013-04-05 12:40:00,
2013-04-05 02:45:00,71.3,65.2,30.04,NNE,33,0.0,3.0,81,0.00,,---,0.00,VWS V14.00,2013-04-05 12:45:00,
2013-04-05 02:50:00,71.2,65.1,30.04,NNE,33,2.0,3.0,81,0.00,,---,0.00,VWS V14.00,2013-04-05 12:50:00,
2013-04-05 02:55:00,71.2,65.1,30.04,NNE,33,3.0,3.0,81,0.00,,---,0.00,VWS V14.00,2013-04-05 12:55:00,
2013-04-05 03:00:00,71.2,65.1,30.04,NE,34,2.0,6.0,81,0.00,,---,0.00,VWS V14.00,2013-04-05 13:00:00,
2013-04-05 03:05:00,71.1,65.0,30.04,NE,34,0.0,0.0,81,0.00,,---,0.00,VWS V14.00,2013-04-05 13:05:00,
2013-04-05 03:10:00,71.1,65.0,30.03,NE,49,2.0,5.0,81,0.00,,---,0.00,VWS V14.00,2013-04-05 13:10:00,
2013-04-05 03:15:00,71.0,64.9,30.03,NE,49,0.0,5.0,81,0.00,,---,0.00,VWS V14.00,2013-04-05 13:15:00,
2013-04-05 03:20:00,71.0,64.9,30.03,NE,49,3.0,5.0,81,0.00,,---,0.00,VWS V14.00,2013-04-05 13:20:00,
2013-04-05 03:25:00,71.0,64.9,30.03,NE,52,0.0,5.0,81,0.00,,---,0.00,VWS V14.00,2013-04-05 13:25:00,
2013-04-05 03:30:00,70.9,64.8,30.03,NE,53,0.0,5.0,81,0.00,,---,0.00,VWS V14.00,2013-04-05 13:30:00,
2013-04-05 03:35:00,70.9,64.8,30.03,NE,53,1.0,4.0,81,0.00,,---,0.00,VWS V14.00,2013-04-05 13:35:00,
2013-04-05 03:40:00,70.9,65.1,30.03,NE,53,0.0,4.0,82,0.00,,---,0.00,VWS V14.00,2013-04-05 13:40:00,
2013-04-05 03:45:00,70.9,64.8,30.03,NE,53,0.0,4.0,81,0.00,,---,0.00,VWS V14.00,2013-04-05 13:45:00,
2013-04-05 03:50:00,70.8,65.0,30.03,NE,53,0.0,4.0,82,0.00,,---,0.00,VWS V14.00,2013-04-05 13:50:00,
2013-04-05 03:55:00,70.8,65.0,30.03,NE,53,0.0,4.0,82,0.00,,---,0.00,VWS V14.00,2013-04-05 13:55:00,
2013-04-05 04:00:00,70.8,64.7,30.03,NE,54,1.0,4.0,81,0.00,,---,0.00,VWS V14.00,2013-04-05 14:00:00,
2013-04-05 04:05:00,70.8,64.7,30.03,NE,54,2.0,2.0,81,0.00,,---,0.00,VWS V14.00,2013-04-05 14:05:00,
2013-04-05 04:10:00,70.8,64.7,30.04,NE,54,1.0,3.0,81,0.00,,---,0.00,VWS V14.00,2013-04-05 14:10:00,
2013-04-05 04:15:00,70.9,64.8,30.04,NE,53,1.0,7.0,81,0.00,,---,0.00,VWS V14.00,2013-04-05 14:15:00,
2013-04-05 04:20:00,71.0,64.9,30.04,NE,53,0.0,7.0,81,0.00,,---,0.00,VWS V14.00,2013-04-05 14:20:00,
2013-04-05 04:25:00,71.1,65.0,30.04,ENE,58,3.0,7.0,81,0.00,,---,0.00,VWS V14.00,2013-04-05 14:25:00,
2013-04-05 04:30:00,71.2,65.1,30.04,ENE,58,0.0,7.0,81,0.00,,---,0.00,VWS V14.00,2013-04-05 14:30:00,
2013-04-05 04:36:00,71.2,65.1,30.04,ENE,58,1.0,2.0,81,0.00,,---,0.00,VWS V14.00,2013-04-05 14:36:00,
2013-04-05 04:40:00,71.3,65.2,30.04,ENE,59,1.0,3.0,81,0.00,,---,0.00,VWS V14.00,2013-04-05 14:40:00,
2013-04-05 04:45:00,71.3,65.2,30.04,ENE,59,1.0,3.0,81,0.00,,---,0.00,VWS V14.00,2013-04-05 14:45:00,
2013-04-05 04:50:00,71.3,64.8,30.04,ENE,59,0.0,3.0,80,0.00,,---,0.00,VWS V14.00,2013-04-05 14:50:00,
2013-04-05 04:56:00,71.2,64.7,30.05,ENE,59,2.0,4.0,80,0.00,,---,0.00,VWS V14.00,2013-04-05 14:56:00,
2013-04-05 05:01:00,71.2,64.7,30.05,ENE,59,0.0,4.0,80,0.00,,---,0.00,VWS V14.00,2013-04-05 15:01:00,
2013-04-05 05:06:00,71.1,64.6,30.05,ENE,59,0.0,1.0,80,0.00,,---,0.00,VWS V14.00,2013-04-05 15:06:00,
2013-04-05 05:11:00,71.1,64.6,30.05,ENE,59,0.0,3.0,80,0.00,,---,0.00,VWS V14.00,2013-04-05 15:11:00,
2013-04-05 05:16:00,71.1,64.6,30.05,NE,49,1.0,8.0,80,0.00,,---,0.00,VWS V14.00,2013-04-05 15:16:00,
2013-04-05 05:22:00,71.2,64.7,30.05,NE,49,0.0,8.0,80,0.00,,---,0.00,VWS V14.00,2013-04-05 15:22:00,
2013-04-05 05:27:00,71.2,64.7,30.05,NE,49,1.0,8.0,80,0.00,,---,0.00,VWS V14.00,2013-04-05 15:27:00,
2013-04-05 05:32:00,71.2,64.7,30.05,NE,49,0.0,8.0,80,0.00,,---,0.00,VWS V14.00,2013-04-05 15:32:00,
2013-04-05 05:37:00,71.2,64.7,30.06,NE,49,0.0,3.0,80,0.00,,---,0.00,VWS V14.00,2013-04-05 15:37:00,
2013-04-05 05:42:00,71.2,64.7,30.06,NE,49,0.0,3.0,80,0.00,,---,0.00,VWS V14.00,2013-04-05 15:42:00,
2013-04-05 05:47:00,71.2,64.7,30.06,NE,49,0.0,5.0,80,0.00,,---,0.00,VWS V14.00,2013-04-05 15:47:00,
2013-04-05 05:52:00,71.2,64.7,30.06,NE,49,0.0,5.0,80,0.00,,---,0.00,VWS V14.00,2013-04-05 15:52:00,
2013-04-05 05:57:00,71.2,64.7,30.06,NE,49,0.0,5.0,80,0.00,,---,0.00,VWS V14.00,2013-04-05 15:57:00,
2013-04-05 06:02:00,71.1,64.6,30.06,NE,49,1.0,5.0,80,0.00,,---,0.00,VWS V14.00,2013-04-05 16:02:00,
2013-04-05 06:07:00,71.1,64.6,30.06,NE,49,1.0,2.0,80,0.00,,---,0.00,VWS V14.00,2013-04-05 16:07:00,
2013-04-05 06:12:00,71.1,64.6,30.06,NE,51,1.0,6.0,80,0.00,,---,0.00,VWS V14.00,2013-04-05 16:12:00,
2013-04-05 06:17:00,71.1,64.6,30.06,NE,50,0.0,6.0,80,0.00,,---,0.00,VWS V14.00,2013-04-05 16:17:00,
2013-04-05 06:22:00,71.1,65.0,30.06,NE,50,0.0,6.0,81,0.00,,---,0.00,VWS V14.00,2013-04-05 16:22:00,
2013-04-05 06:27:00,71.1,65.0,30.07,ENE,74,4.0,6.0,81,0.00,,---,0.00,VWS V14.00,2013-04-05 16:27:00,
2013-04-05 06:32:00,71.1,65.0,30.07,ENE,74,0.0,6.0,81,0.00,,---,0.00,VWS V14.00,2013-04-05 16:32:00,
2013-04-05 06:37:00,71.1,65.0,30.07,ENE,74,2.0,5.0,81,0.00,,---,0.00,VWS V14.00,2013-04-05 16:37:00,
2013-04-05 06:42:00,71.2,65.1,30.07,ENE,74,1.0,5.0,81,0.00,,---,0.00,VWS V14.00,2013-04-05 16:42:00,
2013-04-05 06:47:00,71.2,65.1,30.07,ENE,74,0.0,5.0,81,0.00,,---,0.00,VWS V14.00,2013-04-05 16:47:00,
2013-04-05 06:52:00,71.3,65.2,30.07,ENE,74,0.0,5.0,81,0.00,,---,0.00,VWS V14.00,2013-04-05 16:52:00,
2013-04-05 06:57:00,71.5,65.4,30.08,ENE,74,0.0,5.0,81,0.00,,---,0.00,VWS V14.00,2013-04-05 16:57:00,
2013-04-05 07:02:00,71.6,65.5,30.08,ENE,75,4.0,5.0,81,0.00,,---,0.00,VWS V14.00,2013-04-05 17:02:00,
2013-04-05 07:07:00,71.7,65.2,30.08,ENE,75,0.0,3.0,80,0.00,,---,0.00,VWS V14.00,2013-04-05 17:07:00,
2013-04-05 07:12:00,71.9,65.4,30.08,ENE,74,1.0,3.0,80,0.00,,---,0.00,VWS V14.00,2013-04-05 17:12:00,
2013-04-05 07:17:00,72.0,65.5,30.09,ENE,74,0.0,3.0,80,0.00,,---,0.00,VWS V14.00,2013-04-05 17:17:00,
2013-04-05 07:22:00,72.2,65.7,30.09,ENE,74,0.0,3.0,80,0.00,,---,0.00,VWS V14.00,2013-04-05 17:22:00,
2013-04-05 07:27:00,72.4,65.9,30.09,ENE,78,5.0,5.0,80,0.00,,---,0.00,VWS V14.00,2013-04-05 17:27:00,
2013-04-05 07:32:00,72.5,65.6,30.09,East,80,0.0,5.0,79,0.00,,---,0.00,VWS V14.00,2013-04-05 17:32:00,
2013-04-05 07:37:00,72.7,65.8,30.09,East,80,0.0,4.0,79,0.00,,---,0.00,VWS V14.00,2013-04-05 17:37:00,
2013-04-05 07:42:00,72.8,65.9,30.10,East,80,3.0,5.0,79,0.00,,---,0.00,VWS V14.00,2013-04-05 17:42:00,
2013-04-05 07:47:00,73.0,66.1,30.10,ESE,110,0.0,9.0,79,0.00,,---,0.00,VWS V14.00,2013-04-05 17:47:00,
2013-04-05 07:52:00,73.1,66.2,30.10,ESE,112,0.0,9.0,79,0.00,,---,0.00,VWS V14.00,2013-04-05 17:52:00,
2013-04-05 07:57:00,73.1,65.8,30.10,ESE,111,0.0,9.0,78,0.00,,---,0.00,VWS V14.00,2013-04-05 17:57:00,
2013-04-05 08:02:00,73.2,65.9,30.10,ESE,102,1.0,9.0,78,0.00,,---,0.00,VWS V14.00,2013-04-05 18:02:00,
2013-04-05 08:07:00,73.3,66.0,30.10,ESE,102,4.0,4.0,78,0.00,,---,0.00,VWS V14.00,2013-04-05 18:07:00,
2013-04-05 08:12:00,73.7,66.4,30.10,ESE,103,0.0,6.0,78,0.00,,---,0.00,VWS V14.00,2013-04-05 18:12:00,
2013-04-05 08:17:00,74.0,66.3,30.11,ESE,103,2.0,6.0,77,0.00,,---,0.00,VWS V14.00,2013-04-05 18:17:00,
2013-04-05 08:22:00,74.4,66.3,30.10,SE,140,8.0,12.0,76,0.00,,---,0.00,VWS V14.00,2013-04-05 18:22:00,
2013-04-05 08:27:00,74.4,66.0,30.11,SE,137,5.0,14.0,75,0.00,,---,0.00,VWS V14.00,2013-04-05 18:27:00,
2013-04-05 08:32:00,74.7,66.6,30.11,SE,137,0.0,14.0,76,0.00,,---,0.00,VWS V14.00,2013-04-05 18:32:00,
2013-04-05 08:37:00,74.9,66.4,30.11,SE,134,0.0,8.0,75,0.00,,---,0.00,VWS V14.00,2013-04-05 18:37:00,
2013-04-05 08:42:00,75.1,66.6,30.11,ESE,118,5.0,8.0,75,0.00,,---,0.00,VWS V14.00,2013-04-05 18:42:00,
2013-04-05 08:47:00,75.3,66.8,30.11,East,80,2.0,8.0,75,0.00,,---,0.00,VWS V14.00,2013-04-05 18:47:00,
2013-04-05 08:52:00,75.5,67.0,30.11,East,82,0.0,8.0,75,0.00,,---,0.00,VWS V14.00,2013-04-05 18:52:00,
2013-04-05 08:57:00,75.7,66.4,30.11,SE,128,4.0,11.0,73,0.00,,---,0.00,VWS V14.00,2013-04-05 18:57:00,
2013-04-05 09:02:00,76.0,67.1,30.12,SE,138,5.0,11.0,74,0.00,,---,0.00,VWS V14.00,2013-04-05 19:02:00,
2013-04-05 09:07:00,76.1,66.4,30.12,East,92,4.0,7.0,72,0.00,,---,0.00,VWS V14.00,2013-04-05 19:07:00,
2013-04-05 09:12:00,76.0,66.7,30.12,South,176,7.0,10.0,73,0.00,,---,0.00,VWS V14.00,2013-04-05 19:12:00,
2013-04-05 09:17:00,76.0,66.3,30.12,ENE,69,2.0,10.0,72,0.00,,---,0.00,VWS V14.00,2013-04-05 19:17:00,
2013-04-05 09:22:00,76.1,66.4,30.12,ENE,78,0.0,11.0,72,0.00,,---,0.00,VWS V14.00,2013-04-05 19:22:00,
2013-04-05 09:27:00,76.3,66.6,30.12,SE,140,0.0,12.0,72,0.00,,---,0.00,VWS V14.00,2013-04-05 19:27:00,
2013-04-05 09:32:00,76.4,67.1,30.12,East,100,0.0,12.0,73,0.00,,---,0.00,VWS V14.00,2013-04-05 19:32:00,
2013-04-05 09:37:00,76.6,66.9,30.12,SE,138,4.0,9.0,72,0.00,,---,0.00,VWS V14.00,2013-04-05 19:37:00,
2013-04-05 09:42:00,76.3,65.8,30.13,ESE,107,2.0,16.0,70,0.00,,---,0.00,VWS V14.00,2013-04-05 19:42:00,
2013-04-05 09:47:00,76.3,65.8,30.12,SE,136,12.0,16.0,70,0.00,,---,0.00,VWS V14.00,2013-04-05 19:47:00,
2013-04-05 09:52:00,76.3,66.6,30.12,SE,134,4.0,16.0,72,0.00,,---,0.00,VWS V14.00,2013-04-05 19:52:00,
2013-04-05 09:57:00,76.6,66.9,30.12,ESE,113,0.0,16.0,72,0.00,,---,0.00,VWS V14.00,2013-04-05 19:57:00,
2013-04-05 10:02:00,76.8,66.7,30.12,SE,127,4.0,16.0,71,0.00,,---,0.00,VWS V14.00,2013-04-05 20:02:00,
2013-04-05 10:07:00,77.0,66.5,30.12,SE,138,12.0,13.0,70,0.00,,---,0.00,VWS V14.00,2013-04-05 20:07:00,
2013-04-05 10:12:00,76.8,66.3,30.12,SSE,156,7.0,15.0,70,0.00,,---,0.00,VWS V14.00,2013-04-05 20:12:00,
2013-04-05 10:17:00,76.8,66.7,30.12,NE,41,0.0,15.0,71,0.00,,---,0.00,VWS V14.00,2013-04-05 20:17:00,
2013-04-05 10:22:00,76.9,66.4,30.12,SE,126,6.0,15.0,70,0.00,,---,0.00,VWS V14.00,2013-04-05 20:22:00,
2013-04-05 10:27:00,77.0,66.9,30.12,SE,136,6.0,15.0,71,0.00,,---,0.00,VWS V14.00,2013-04-05 20:27:00,
2013-04-05 10:32:00,76.7,66.2,30.12,SSE,155,4.0,15.0,70,0.00,,---,0.00,VWS V14.00,2013-04-05 20:32:00,
2013-04-05 10:37:00,77.1,66.6,30.12,SE,144,9.0,11.0,70,0.00,,---,0.00,VWS V14.00,2013-04-05 20:37:00,
2013-04-05 10:42:00,77.3,66.8,30.11,East,84,3.0,11.0,70,0.00,,---,0.00,VWS V14.00,2013-04-05 20:42:00,
2013-04-05 10:47:00,77.5,66.9,30.12,East,82,3.0,14.0,70,0.00,,---,0.00,VWS V14.00,2013-04-05 20:47:00,
2013-04-05 10:52:00,77.3,66.3,30.11,SE,142,5.0,14.0,69,0.00,,---,0.00,VWS V14.00,2013-04-05 20:52:00,
2013-04-05 10:57:00,76.9,66.4,30.11,ENE,78,2.0,17.0,70,0.00,,---,0.00,VWS V14.00,2013-04-05 20:57:00,
2013-04-05 11:02:00,76.7,66.6,30.11,SSE,147,13.0,13.0,71,0.00,,---,0.00,VWS V14.00,2013-04-05 21:02:00,
2013-04-05 11:07:00,76.6,66.5,30.11,SE,134,6.0,15.0,71,0.00,,---,0.00,VWS V14.00,2013-04-05 21:07:00,
2013-04-05 11:12:00,76.8,66.3,30.11,ESE,109,7.0,15.0,70,0.00,,---,0.00,VWS V14.00,2013-04-05 21:12:00,
2013-04-05 11:18:00,77.0,66.9,30.11,SE,126,6.0,15.0,71,0.00,,---,0.00,VWS V14.00,2013-04-05 21:18:00,
2013-04-05 11:23:00,77.1,66.6,30.11,SE,142,2.0,15.0,70,0.00,,---,0.00,VWS V14.00,2013-04-05 21:23:00,
2013-04-05 11:28:00,77.2,66.7,30.11,ENE,57,1.0,15.0,70,0.00,,---,0.00,VWS V14.00,2013-04-05 21:28:00,
2013-04-05 11:33:00,77.2,67.1,30.11,SE,126,4.0,7.0,71,0.00,,---,0.00,VWS V14.00,2013-04-05 21:33:00,
2013-04-05 11:38:00,77.1,67.4,30.11,SE,136,1.0,12.0,72,0.00,,---,0.00,VWS V14.00,2013-04-05 21:38:00,
2013-04-05 11:43:00,77.3,67.2,30.11,ESE,112,2.0,12.0,71,0.00,,---,0.00,VWS V14.00,2013-04-05 21:43:00,
2013-04-05 11:48:00,77.6,66.6,30.10,ENE,67,4.0,16.0,69,0.00,,---,0.00,VWS V14.00,2013-04-05 21:48:00,
2013-04-05 11:53:00,77.6,67.1,30.10,SE,137,10.0,16.0,70,0.00,,---,0.00,VWS V14.00,2013-04-05 21:53:00,
2013-04-05 11:58:00,77.8,67.2,30.10,SE,136,6.0,16.0,70,0.00,,---,0.00,VWS V14.00,2013-04-05 21:58:00,
2013-04-05 12:03:00,77.7,66.7,30.10,SE,127,4.0,7.0,69,0.00,,---,0.00,VWS V14.00,2013-04-05 22:03:00,
2013-04-05 12:08:00,77.5,66.5,30.10,ESE,105,5.0,12.0,69,0.00,,---,0.00,VWS V14.00,2013-04-05 22:08:00,
2013-04-05 12:13:00,77.3,66.3,30.10,SE,128,0.0,13.0,69,0.00,,---,0.00,VWS V14.00,2013-04-05 22:13:00,
2013-04-05 12:18:00,76.9,66.0,30.10,ESE,109,4.0,13.0,69,0.00,,---,0.00,VWS V14.00,2013-04-05 22:18:00,
2013-04-05 12:23:00,77.1,66.6,30.09,ESE,117,6.0,13.0,70,0.00,,---,0.00,VWS V14.00,2013-04-05 22:23:00,
2013-04-05 12:28:00,77.2,67.1,30.09,ESE,106,1.0,13.0,71,0.00,,---,0.00,VWS V14.00,2013-04-05 22:28:00,
2013-04-05 12:33:00,77.2,66.2,30.09,SE,143,9.0,15.0,69,0.00,,---,0.00,VWS V14.00,2013-04-05 22:33:00,
2013-04-05 12:38:00,77.4,66.9,30.09,ESE,113,2.0,15.0,70,0.00,,---,0.00,VWS V14.00,2013-04-05 22:38:00,
2013-04-05 12:43:00,77.7,66.7,30.08,ESE,120,1.0,15.0,69,0.00,,---,0.00,VWS V14.00,2013-04-05 22:43:00,
2013-04-05 12:48:00,77.9,67.3,30.08,ESE,109,4.0,15.0,70,0.00,,---,0.00,VWS V14.00,2013-04-05 22:48:00,
2013-04-05 12:53:00,78.1,67.1,30.09,SE,133,7.0,15.0,69,0.00,,---,0.00,VWS V14.00,2013-04-05 22:53:00,
2013-04-05 12:58:00,78.0,67.4,30.09,East,94,0.0,15.0,70,0.00,,---,0.00,VWS V14.00,2013-04-05 22:58:00,
2013-04-05 13:03:00,78.0,66.6,30.09,SE,128,7.0,8.0,68,0.00,,---,0.00,VWS V14.00,2013-04-05 23:03:00,
2013-04-05 13:08:00,78.0,66.6,30.08,ENE,63,5.0,12.0,68,0.00,,---,0.00,VWS V14.00,2013-04-05 23:08:00,
2013-04-05 13:13:00,77.9,66.9,30.08,ESE,107,2.0,12.0,69,0.00,,---,0.00,VWS V14.00,2013-04-05 23:13:00,
2013-04-05 13:18:00,78.5,67.5,30.08,ENE,65,6.0,12.0,69,0.00,,---,0.00,VWS V14.00,2013-04-05 23:18:00,
2013-04-05 13:23:00,78.7,67.3,30.08,East,86,1.0,12.0,68,0.00,,---,0.00,VWS V14.00,2013-04-05 23:23:00,
2013-04-05 13:28:00,78.8,66.9,30.07,East,93,2.0,12.0,67,0.00,,---,0.00,VWS V14.00,2013-04-05 23:28:00,
2013-04-05 13:33:00,79.1,66.8,30.07,SSE,151,4.0,5.0,66,0.00,,---,0.00,VWS V14.00,2013-04-05 23:33:00,
2013-04-05 13:38:00,78.9,67.4,30.08,ENE,74,5.0,9.0,68,0.00,,---,0.00,VWS V14.00,2013-04-05 23:38:00,
2013-04-05 13:43:00,78.7,67.3,30.07,ENE,68,2.0,9.0,68,0.00,,---,0.00,VWS V14.00,2013-04-05 23:43:00,
2013-04-05 13:48:00,78.4,67.0,30.07,SE,145,5.0,10.0,68,0.00,,---,0.00,VWS V14.00,2013-04-05 23:48:00,
2013-04-05 13:53:00,78.2,66.8,30.07,East,79,5.0,10.0,68,0.00,,---,0.00,VWS V14.00,2013-04-05 23:53:00,
2013-04-05 13:58:00,78.0,67.4,30.07,ESE,113,1.0,13.0,70,0.00,,---,0.00,VWS V14.00,2013-04-05 23:58:00,
2013-04-05 14:03:00,78.2,66.8,30.07,East,86,3.0,3.0,68,0.00,,---,0.00,VWS V14.00,2013-04-06 00:03:00,
2013-04-05 14:08:00,78.1,67.1,30.06,East,81,3.0,5.0,69,0.00,,---,0.00,VWS V14.00,2013-04-06 00:08:00,
2013-04-05 14:13:00,78.0,67.0,30.06,East,79,0.0,5.0,69,0.00,,---,0.00,VWS V14.00,2013-04-06 00:13:00,
2013-04-05 14:18:00,77.9,67.3,30.06,East,82,3.0,5.0,70,0.00,,---,0.00,VWS V14.00,2013-04-06 00:18:00,
2013-04-05 14:23:00,77.6,66.6,30.06,SSE,149,1.0,10.0,69,0.00,,---,0.00,VWS V14.00,2013-04-06 00:23:00,
2013-04-05 14:28:00,77.5,66.9,30.06,ESE,108,0.0,10.0,70,0.00,,---,0.00,VWS V14.00,2013-04-06 00:28:00,
2013-04-05 14:33:00,77.5,66.9,30.06,NE,36,5.0,6.0,70,0.00,,---,0.00,VWS V14.00,2013-04-06 00:33:00,
2013-04-05 14:38:00,77.3,67.2,30.06,ENE,65,1.0,10.0,71,0.00,,---,0.00,VWS V14.00,2013-04-06 00:38:00,
2013-04-05 14:43:00,76.9,66.4,30.06,ENE,63,2.0,10.0,70,0.00,,---,0.00,VWS V14.00,2013-04-06 00:43:00,
2013-04-05 14:48:00,76.6,66.9,30.05,North,355,1.0,10.0,72,0.00,,---,0.00,VWS V14.00,2013-04-06 00:48:00,
2013-04-05 14:53:00,76.6,66.9,30.05,NE,43,4.0,10.0,72,0.00,,---,0.00,VWS V14.00,2013-04-06 00:53:00,
2013-04-05 14:58:00,76.4,66.7,30.05,NE,47,0.0,10.0,72,0.00,,---,0.00,VWS V14.00,2013-04-06 00:58:00,
2013-04-05 15:03:00,76.6,66.9,30.05,NNE,26,5.0,8.0,72,0.00,,---,0.00,VWS V14.00,2013-04-06 01:03:00,
2013-04-05 15:08:00,76.8,67.1,30.06,NE,49,3.0,8.0,72,0.00,,---,0.00,VWS V14.00,2013-04-06 01:08:00,
2013-04-05 15:13:00,76.7,67.0,30.05,NE,49,2.0,8.0,72,0.00,,---,0.00,VWS V14.00,2013-04-06 01:13:00,
2013-04-05 15:18:00,76.4,67.1,30.05,NE,50,2.0,8.0,73,0.00,,---,0.00,VWS V14.00,2013-04-06 01:18:00,
2013-04-05 15:23:00,76.4,67.1,30.05,ENE,57,3.0,8.0,73,0.00,,---,0.00,VWS V14.00,2013-04-06 01:23:00,
2013-04-05 15:28:00,76.4,67.1,30.05,ENE,61,2.0,8.0,73,0.00,,---,0.00,VWS V14.00,2013-04-06 01:28:00,
2013-04-05 15:33:00,76.7,67.0,30.05,ENE,61,0.0,0.0,72,0.00,,---,0.00,VWS V14.00,2013-04-06 01:33:00,
2013-04-05 15:38:00,76.8,67.1,30.05,NE,55,1.0,6.0,72,0.00,,---,0.00,VWS V14.00,2013-04-06 01:38:00,
2013-04-05 15:43:00,76.7,66.6,30.05,NE,45,5.0,7.0,71,0.00,,---,0.00,VWS V14.00,2013-04-06 01:43:00,
2013-04-05 15:48:00,76.5,66.8,30.05,ENE,67,3.0,8.0,72,0.00,,---,0.00,VWS V14.00,2013-04-06 01:48:00,
2013-04-05 15:53:00,76.0,66.7,30.05,ENE,62,0.0,8.0,73,0.00,,---,0.00,VWS V14.00,2013-04-06 01:53:00,
2013-04-05 15:58:00,75.7,66.8,30.05,ENE,67,0.0,8.0,74,0.00,,---,0.00,VWS V14.00,2013-04-06 01:58:00,
2013-04-05 16:03:00,75.7,66.4,30.05,NE,52,2.0,3.0,73,0.00,,---,0.00,VWS V14.00,2013-04-06 02:03:00,
2013-04-05 16:08:00,75.5,66.6,30.05,NE,55,2.0,5.0,74,0.00,,---,0.00,VWS V14.00,2013-04-06 02:08:00,
2013-04-05 16:13:00,75.7,66.8,30.05,ENE,57,0.0,5.0,74,0.00,,---,0.00,VWS V14.00,2013-04-06 02:13:00,
2013-04-05 16:18:00,75.7,66.8,30.05,NE,39,3.0,6.0,74,0.00,,---,0.00,VWS V14.00,2013-04-06 02:18:00,
2013-04-05 16:23:00,75.6,66.7,30.05,NE,40,0.0,6.0,74,0.00,,---,0.00,VWS V14.00,2013-04-06 02:23:00,
2013-04-05 16:28:00,75.6,66.7,30.05,NE,39,3.0,6.0,74,0.00,,---,0.00,VWS V14.00,2013-04-06 02:28:00,
2013-04-05 16:33:00,75.4,66.5,30.05,NE,38,2.0,2.0,74,0.00,,---,0.00,VWS V14.00,2013-04-06 02:33:00,
2013-04-05 16:38:00,75.4,66.5,30.05,NE,37,0.0,4.0,74,0.00,,---,0.00,VWS V14.00,2013-04-06 02:38:00,
2013-04-05 16:43:00,75.3,66.4,30.05,NE,56,2.0,5.0,74,0.00,,---,0.00,VWS V14.00,2013-04-06 02:43:00,
2013-04-05 16:48:00,75.0,66.2,30.05,ENE,69,0.0,5.0,74,0.00,,---,0.00,VWS V14.00,2013-04-06 02:48:00,
2013-04-05 16:53:00,74.9,66.4,30.05,NE,53,3.0,7.0,75,0.00,,---,0.00,VWS V14.00,2013-04-06 02:53:00,
2013-04-05 16:58:00,74.8,66.3,30.05,NE,48,2.0,7.0,75,0.00,,---,0.00,VWS V14.00,2013-04-06 02:58:00,
2013-04-05 17:03:00,74.7,66.3,30.05,NE,43,4.0,5.0,75,0.00,,---,0.00,VWS V14.00,2013-04-06 03:03:00,
2013-04-05 17:08:00,74.6,66.2,30.05,NNE,16,3.0,10.0,75,0.00,,---,0.00,VWS V14.00,2013-04-06 03:08:00,
2013-04-05 17:13:00,74.5,66.4,30.05,NNE,13,2.0,10.0,76,0.00,,---,0.00,VWS V14.00,2013-04-06 03:13:00,
2013-04-05 17:18:00,74.5,66.4,30.05,NNE,15,0.0,10.0,76,0.00,,---,0.00,VWS V14.00,2013-04-06 03:18:00,
2013-04-05 17:23:00,74.4,66.3,30.05,NNE,16,2.0,10.0,76,0.00,,---,0.00,VWS V14.00,2013-04-06 03:23:00,
2013-04-05 17:28:00,74.4,66.3,30.06,NNE,16,2.0,10.0,76,0.00,,---,0.00,VWS V14.00,2013-04-06 03:28:00,
2013-04-05 17:33:00,74.4,66.3,30.06,NNE,17,0.0,2.0,76,0.00,,---,0.00,VWS V14.00,2013-04-06 03:33:00,
2013-04-05 17:38:00,74.3,66.2,30.06,NNE,24,0.0,4.0,76,0.00,,---,0.00,VWS V14.00,2013-04-06 03:38:00,
2013-04-05 17:43:00,74.3,66.2,30.06,NNE,24,0.0,4.0,76,0.00,,---,0.00,VWS V14.00,2013-04-06 03:43:00,
2013-04-05 17:48:00,74.2,66.2,30.06,NNE,24,1.0,4.0,76,0.00,,---,0.00,VWS V14.00,2013-04-06 03:48:00,
2013-04-05 17:53:00,74.1,66.1,30.06,NE,40,3.0,5.0,76,0.00,,---,0.00,VWS V14.00,2013-04-06 03:53:00,
2013-04-05 17:58:00,74.0,66.3,30.06,NE,39,1.0,7.0,77,0.00,,---,0.00,VWS V14.00,2013-04-06 03:58:00,
2013-04-05 18:00:00,74.0,66.3,30.06,NE,39,0.0,7.0,77,0.00,,---,0.00,VWS V14.00,2013-04-06 04:00:00,
2013-04-05 18:05:00,74.0,66.3,30.07,NE,39,0.0,2.0,77,0.00,,---,0.00,VWS V14.00,2013-04-06 04:05:00,
2013-04-05 18:10:00,74.1,66.4,30.07,NE,39,4.0,4.0,77,0.00,,---,0.00,VWS V14.00,2013-04-06 04:10:00,
2013-04-05 18:15:00,74.1,66.4,30.07,NE,39,0.0,4.0,77,0.00,,---,0.00,VWS V14.00,2013-04-06 04:15:00,
2013-04-05 18:20:00,74.0,66.3,30.07,NE,49,1.0,9.0,77,0.00,,---,0.00,VWS V14.00,2013-04-06 04:20:00,
2013-04-05 18:25:00,74.0,66.3,30.07,NE,49,1.0,9.0,77,0.00,,---,0.00,VWS V14.00,2013-04-06 04:25:00,
2013-04-05 18:30:00,73.9,66.2,30.08,NE,49,0.0,9.0,77,0.00,,---,0.00,VWS V14.00,2013-04-06 04:30:00,
2013-04-05 18:35:00,73.8,66.2,30.08,NE,49,0.0,7.0,77,0.00,,---,0.00,VWS V14.00,2013-04-06 04:35:00,
2013-04-05 18:40:00,73.8,66.2,30.08,NE,49,0.0,7.0,77,0.00,,---,0.00,VWS V14.00,2013-04-06 04:40:00,
2013-04-05 18:45:00,73.8,66.5,30.08,NE,46,0.0,7.0,78,0.00,,---,0.00,VWS V14.00,2013-04-06 04:45:00,
2013-04-05 18:50:00,73.9,66.6,30.08,NE,55,2.0,8.0,78,0.00,,---,0.00,VWS V14.00,2013-04-06 04:50:00,
2013-04-05 18:55:00,73.8,66.5,30.08,ENE,61,3.0,8.0,78,0.00,,---,0.00,VWS V14.00,2013-04-06 04:55:00,
2013-04-05 19:00:00,73.8,66.9,30.08,ENE,61,0.0,8.0,79,0.00,,---,0.00,VWS V14.00,2013-04-06 05:00:00,
2013-04-05 19:05:00,73.8,66.9,30.08,ENE,61,2.0,2.0,79,0.00,,---,0.00,VWS V14.00,2013-04-06 05:05:00,
2013-04-05 19:10:00,73.8,66.9,30.08,ENE,61,0.0,3.0,79,0.00,,---,0.00,VWS V14.00,2013-04-06 05:10:00,
2013-04-05 19:15:00,73.7,66.8,30.09,ENE,61,0.0,3.0,79,0.00,,---,0.00,VWS V14.00,2013-04-06 05:15:00,
2013-04-05 19:20:00,73.7,67.2,30.09,ENE,61,0.0,3.0,80,0.00,,---,0.00,VWS V14.00,2013-04-06 05:20:00,
2013-04-05 19:25:00,73.7,67.2,30.09,ENE,61,0.0,3.0,80,0.00,,---,0.00,VWS V14.00,2013-04-06 05:25:00,
2013-04-05 19:30:00,73.7,67.2,30.10,ENE,60,2.0,4.0,80,0.00,,---,0.00,VWS V14.00,2013-04-06 05:30:00,
2013-04-05 19:35:00,73.7,67.2,30.10,ENE,60,0.0,3.0,80,0.00,,---,0.00,VWS V14.00,2013-04-06 05:35:00,
2013-04-05 19:40:00,73.7,67.5,30.10,ENE,57,0.0,7.0,81,0.00,,---,0.00,VWS V14.00,2013-04-06 05:40:00,
2013-04-05 19:45:00,73.7,67.5,30.10,ENE,57,2.0,7.0,81,0.00,,---,0.00,VWS V14.00,2013-04-06 05:45:00,
2013-04-05 19:50:00,73.6,67.4,30.10,ENE,58,0.0,7.0,81,0.00,,---,0.00,VWS V14.00,2013-04-06 05:50:00,
2013-04-05 19:55:00,73.6,67.4,30.11,NE,53,0.0,11.0,81,0.00,,---,0.00,VWS V14.00,2013-04-06 05:55:00,
2013-04-05 20:00:00,73.6,67.8,30.11,ENE,59,0.0,11.0,82,0.00,,---,0.00,VWS V14.00,2013-04-06 06:00:00,
2013-04-05 20:05:00,73.6,67.8,30.11,ENE,59,0.0,2.0,82,0.00,,---,0.00,VWS V14.00,2013-04-06 06:05:00,
2013-04-05 20:10:00,73.6,67.8,30.11,ENE,58,2.0,5.0,82,0.00,,---,0.00,VWS V14.00,2013-04-06 06:10:00,
2013-04-05 20:15:00,73.5,67.7,30.11,ENE,58,0.0,5.0,82,0.00,,---,0.00,VWS V14.00,2013-04-06 06:15:00,
2013-04-05 20:20:00,73.5,67.7,30.11,ENE,58,1.0,5.0,82,0.00,,---,0.00,VWS V14.00,2013-04-06 06:20:00,
2013-04-05 20:25:00,73.6,67.8,30.11,ENE,58,0.0,5.0,82,0.00,,---,0.00,VWS V14.00,2013-04-06 06:25:00,
2013-04-05 20:30:00,73.6,67.8,30.12,ENE,58,4.0,5.0,82,0.00,,---,0.00,VWS V14.00,2013-04-06 06:30:00,
2013-04-05 20:35:00,73.6,68.1,30.12,NE,56,2.0,6.0,83,0.00,,---,0.00,VWS V14.00,2013-04-06 06:35:00,
2013-04-05 20:40:00,73.6,68.1,30.12,ENE,57,0.0,6.0,83,0.00,,---,0.00,VWS V14.00,2013-04-06 06:40:00,
2013-04-05 20:46:00,73.6,68.1,30.12,NE,56,1.0,6.0,83,0.00,,---,0.00,VWS V14.00,2013-04-06 06:46:00,
2013-04-05 20:51:00,73.5,68.0,30.12,NE,56,0.0,6.0,83,0.00,,---,0.00,VWS V14.00,2013-04-06 06:51:00,
2013-04-05 20:56:00,73.5,68.0,30.12,NE,54,0.0,11.0,83,0.00,,---,0.00,VWS V14.00,2013-04-06 06:56:00,
2013-04-05 21:01:00,73.5,68.4,30.12,NE,51,5.0,11.0,84,0.00,,---,0.00,VWS V14.00,2013-04-06 07:01:00,
2013-04-05 21:06:00,73.5,68.4,30.12,NNE,33,0.0,1.0,84,0.00,,---,0.00,VWS V14.00,2013-04-06 07:06:00,
2013-04-05 21:11:00,73.5,68.4,30.12,NE,34,3.0,5.0,84,0.00,,---,0.00,VWS V14.00,2013-04-06 07:11:00,
2013-04-05 21:16:00,73.5,68.4,30.12,NE,35,1.0,5.0,84,0.00,,---,0.00,VWS V14.00,2013-04-06 07:16:00,
2013-04-05 21:21:00,73.5,68.4,30.13,NE,40,2.0,8.0,84,0.00,,---,0.00,VWS V14.00,2013-04-06 07:21:00,
2013-04-05 21:26:00,73.5,68.4,30.13,NE,41,1.0,8.0,84,0.00,,---,0.00,VWS V14.00,2013-04-06 07:26:00,
2013-04-05 21:31:00,73.6,68.5,30.13,NE,42,0.0,8.0,84,0.00,,---,0.00,VWS V14.00,2013-04-06 07:31:00,
2013-04-05 21:36:00,73.6,68.5,30.14,NE,42,3.0,4.0,84,0.00,,---,0.00,VWS V14.00,2013-04-06 07:36:00,
2013-04-05 21:41:00,73.6,68.5,30.14,NE,42,0.0,5.0,84,0.00,,---,0.00,VWS V14.00,2013-04-06 07:41:00,
2013-04-05 21:46:00,73.5,68.4,30.14,NE,42,1.0,5.0,84,0.00,,---,0.00,VWS V14.00,2013-04-06 07:46:00,
2013-04-05 21:51:00,73.5,68.4,30.14,NE,42,5.0,5.0,84,0.00,,---,0.00,VWS V14.00,2013-04-06 07:51:00,
2013-04-05 21:56:00,73.5,68.4,30.14,NE,42,0.0,5.0,84,0.00,,---,0.00,VWS V14.00,2013-04-06 07:56:00,
2013-04-05 22:01:00,73.5,68.4,30.14,NE,42,0.0,5.0,84,0.00,,---,0.00,VWS V14.00,2013-04-06 08:01:00,
2013-04-05 22:06:00,73.5,68.4,30.14,NE,42,1.0,5.0,84,0.00,,---,0.00,VWS V14.00,2013-04-06 08:06:00,
2013-04-05 22:11:00,73.4,68.3,30.15,NE,41,2.0,7.0,84,0.00,,---,0.00,VWS V14.00,2013-04-06 08:11:00,
2013-04-05 22:16:00,73.5,68.7,30.15,NE,42,3.0,7.0,85,0.00,,---,0.00,VWS V14.00,2013-04-06 08:16:00,
2013-04-05 22:21:00,73.5,68.7,30.15,NE,38,1.0,7.0,85,0.00,,---,0.00,VWS V14.00,2013-04-06 08:21:00,
2013-04-05 22:25:00,73.4,68.6,30.15,NE,38,0.0,7.0,85,0.00,,---,0.00,VWS V14.00,2013-04-06 08:25:00,
2013-04-05 22:30:00,73.4,68.6,30.15,NE,38,0.0,7.0,85,0.00,,---,0.00,VWS V14.00,2013-04-06 08:30:00,
2013-04-05 22:35:00,73.4,68.6,30.15,NNE,24,0.0,5.0,85,0.00,,---,0.00,VWS V14.00,2013-04-06 08:35:00,
2013-04-05 22:40:00,73.4,68.6,30.14,NNE,24,0.0,5.0,85,0.00,,---,0.00,VWS V14.00,2013-04-06 08:40:00,
2013-04-05 22:45:00,73.4,68.6,30.15,NNE,24,0.0,5.0,85,0.00,,---,0.00,VWS V14.00,2013-04-06 08:45:00,
2013-04-05 22:50:00,73.3,68.5,30.14,NNE,24,0.0,5.0,85,0.00,,---,0.00,VWS V14.00,2013-04-06 08:50:00,
2013-04-05 22:56:00,73.3,68.5,30.14,NNE,24,1.0,5.0,85,0.00,,---,0.00,VWS V14.00,2013-04-06 08:56:00,
2013-04-05 23:01:00,73.3,68.5,30.15,NNE,24,0.0,5.0,85,0.00,,---,0.00,VWS V14.00,2013-04-06 09:01:00,
2013-04-05 23:06:00,73.3,68.5,30.14,NNE,24,0.0,2.0,85,0.00,,---,0.00,VWS V14.00,2013-04-06 09:06:00,
2013-04-05 23:11:00,73.3,68.5,30.14,NNE,24,0.0,2.0,85,0.00,,---,0.00,VWS V14.00,2013-04-06 09:11:00,
2013-04-05 23:15:00,73.3,68.5,30.15,NNE,24,0.0,4.0,85,0.00,,---,0.00,VWS V14.00,2013-04-06 09:15:00,
2013-04-05 23:21:00,73.3,68.5,30.15,NNE,24,0.0,4.0,85,0.00,,---,0.00,VWS V14.00,2013-04-06 09:21:00,
2013-04-05 23:26:00,73.2,68.4,30.15,NNE,26,0.0,4.0,85,0.00,,---,0.00,VWS V14.00,2013-04-06 09:26:00,
2013-04-05 23:31:00,73.1,68.3,30.14,NNE,26,0.0,4.0,85,0.00,,---,0.00,VWS V14.00,2013-04-06 09:31:00,
2013-04-05 23:36:00,73.1,68.3,30.14,NNE,26,0.0,1.0,85,0.00,,---,0.00,VWS V14.00,2013-04-06 09:36:00,
2013-04-05 23:40:00,73.0,68.2,30.14,NNE,26,0.0,2.0,85,0.00,,---,0.00,VWS V14.00,2013-04-06 09:40:00,
2013-04-05 23:46:00,73.0,68.2,30.14,NNE,26,0.0,2.0,85,0.00,,---,0.00,VWS V14.00,2013-04-06 09:46:00,
2013-04-05 23:51:00,73.0,68.2,30.14,NNE,26,0.0,2.0,85,0.00,,---,0.00,VWS V14.00,2013-04-06 09:51:00,
2013-04-05 23:56:00,73.0,68.2,30.14,NNE,26,0.0,2.0,85,0.00,,---,0.00,VWS V14.00,2013-04-06 09:56:00,